Regional Weather Roundup
Issued by NWS

Home | Current Version | Previous Version | Text Only | Print | Product List | Glossary On
Versions: 1 2 3 4 5 6 7 8 9 10 11 12 13 14 15 16 17 18 19 20 21 22 23 24 25 26 27 28 29 30 31 32 33 34 35 36 37 38 39 40 41 42 43 44 45 46 47 48 49 50
000
ASCA42 TJSJ 190711
RWRPR
PUERTO RICO/U.S. VIRGIN ISLANDS HOURLY WEATHER ROUNDUP
NATIONAL WEATHER SERVICE SAN JUAN PR
300 AM AST FRI SEP 19 2014

PRZ001-004-190800-
PUERTO RICO

CITY           SKY/WX    TMP DP  RH WIND       PRES   REMARKS
SAN JUAN LMM   TSTM      75  75 100 NW6       29.94F
CEIBA          PTCLDY    82  75  78 E9        29.94F
$$

PRZ006-007-190800-
U.S. VIRGIN ISLANDS

CITY           SKY/WX    TMP DP  RH WIND       PRES   REMARKS
CHARLOTTE AMA  CLEAR     81  73  78 E10       29.93S
CHRISTIANSTED  CLEAR     79  75  89 N5        29.93F
$$

HOURLY WEATHER ROUNDUP FOR THE NEWS MEDIA

CITY           SKY/WX    TMP DP  RH WIND       PRES   REMARKS
MIAMI          MOCLDY    78  74  87 CALM      29.91F
ORLANDO        MOCLDY    79  74  84 CALM      29.93S
NEW YORK       CLEAR     61  50  67 N10       30.15R
NEWARK         CLEAR     59  50  72 N13       30.16R
CHICAGO        CLEAR     56  54  93 N3        30.16S
HARTFORD       CLEAR     54  44  69 N6        30.17R
BOSTON         MOCLDY    51  39  63 N13       30.21R
DALLAS         MOCLDY    72  65  78 SE8       29.92F
PHILADELPHIA   CLEAR     60  49  66 N12       30.14R


USA.gov is the U.S. government's official web portal to all federal, state and local government web resources and services.